Volver al catálogo

COSMOS 1275

ActivoNavegaciónPO
NORAD 12504·PAYLOAD·🇷🇺 Russia

Lanzado Jun 4, 1981 desde Plesetsk Cosmodrome

Loading…

Próximos Pases (próximas 24 horas)

TLE

ActualizadoSource: Space-Track

Época: Sep 14, 2026, 13:33 UTC

1 12504U 81053A   26257.56484354  .00000044  00000-0  30955-4 0  9994
2 12504  82.9627 199.4618 0038369 290.7032  69.0013 13.74538283271551

Sigue COSMOS 1275 en tiempo real con AllMySat

Download on the App Store